Weather History for Dayton, OH

Change the Weather History Date:

Tuesday, October 1, 2013

  Actual Average Record
Temperature  
Mean Temperature 69 °F 59 °F  
Max Temperature 78 °F 70 °F 93 °F (1897)
Min Temperature 59 °F 49 °F 26 °F (1899)
Degree Days  
Heating Degree Days 0 7  
Month to date heating degree days 0 7  
Since 1 July heating degree days 67 97  
Cooling Degree Days 4 1  
Month to date cooling degree days 4 1  
Year to date cooling degree days 1031 882  
Growing Degree Days 18 (Base 50)    
Moisture  
Dew Point 61 °F    
Average Humidity 78    
Maximum Humidity 100    
Minimum Humidity 56    
Precipitation  
Precipitation 0.00 in 0.09 in 3.24 in (1986)
Month to date precipitation 0.00 0.09  
Year to date precipitation 24.61 31.70  
Snow  
Snow 0.00 in 0.00 in - ()
Month to date snowfall 0.0 0.0  
Since 1 July snowfall 0.0 0.0  
Since 1 September snowfall 0.0 0.0  
Snow Depth 0.00 in    
Sea Level Pressure  
Sea Level Pressure 30.06 in    
Wind  
Wind Speed 7 mph (SSW)    
Max Wind Speed 16 mph    
Max Gust Speed 20 mph    
Visibility 5 miles    
Events Fog    
T = Trace of Precipitation, MM = Missing Value Source: NWS Daily Summary

Daily Weather History Graph

Daily Weather History Graph

Search for Another Location

Airport:

Trip Planner

Search our weather history database for the weather conditions in past years. The results will help you decide how hot, cold, wet, or windy it might be!

Date:

Astronomy

Oct. 01, 2013 Rise Set
Actual Time 7:33 AM EDT 7:18 PM EDT
Civil Twilight 7:06 AM EDT 7:45 PM EDT
Nautical Twilight 6:35 AM EDT 8:17 PM EDT
Astronomical Twilight 6:03 AM EDT 8:48 PM EDT
Moon 4:06 AM EDT (10/1) 5:21 PM EDT (10/1)
Length of Visible Light 12h 39m
Length of Day
11h 45m
Waning Crescent, 12% of the Moon is Illuminated
Oct 1
Waning Crescent
Oct 4
New
Oct 11
First Quarter
Oct 18
Full
Oct 26
Last Quarter

Hourly Weather History & Observations

Time (EDT) Temp. Dew Point Humidity Pressure Visibility Wind Dir Wind Speed Gust Speed Precip Events Conditions
12:56 AM 64.0 °F 61.0 °F 90% 30.02 in 6.0 mi South 4.6 mph - N/A   Mostly Cloudy
1:56 AM 63.0 °F 61.0 °F 93% 30.02 in 5.0 mi South 4.6 mph - N/A   Scattered Clouds
2:56 AM 63.0 °F 60.1 °F 90% 30.03 in 4.0 mi SSW 5.8 mph - N/A   Scattered Clouds
3:56 AM 59.0 °F 59.0 °F 100% 30.03 in 3.0 mi SSW 3.5 mph - N/A   Partly Cloudy
4:34 AM 59.0 °F 57.2 °F 94% 30.04 in 2.5 mi SSW 3.5 mph - N/A   Clear
4:56 AM 61.0 °F 60.1 °F 97% 30.03 in 2.5 mi South 4.6 mph - N/A   Clear
5:03 AM 60.8 °F 60.8 °F 100% 30.04 in 3.0 mi South 4.6 mph - N/A   Clear
5:56 AM 61.0 °F 60.1 °F 97% 30.04 in 3.0 mi South 4.6 mph - N/A   Clear
6:56 AM 61.0 °F 59.0 °F 93% 30.06 in 2.5 mi South 5.8 mph - N/A   Clear
7:26 AM 60.8 °F 59.0 °F 94% 30.08 in 2.0 mi SW 5.8 mph - N/A   Mostly Cloudy
7:28 AM 60.8 °F 59.0 °F 94% 30.08 in 0.2 mi SW 5.8 mph - N/A   Mostly Cloudy
7:35 AM 60.8 °F 59.0 °F 94% 30.09 in 0.2 mi SSW 4.6 mph - N/A   Mostly Cloudy
7:56 AM 60.1 °F 60.1 °F 100% 30.08 in 0.2 mi SSW 6.9 mph - N/A Fog Fog
8:03 AM 60.8 °F 59.0 °F 94% 30.09 in 0.1 mi SSW 5.8 mph - N/A Fog Fog
8:46 AM 60.8 °F 60.8 °F 100% 30.10 in 0.1 mi SSW 6.9 mph - N/A Fog Fog
8:56 AM 61.0 °F 61.0 °F 100% 30.09 in 0.1 mi SSW 6.9 mph - N/A Fog Fog
9:17 AM 60.8 °F 60.8 °F 100% 30.10 in 0.2 mi SSW 8.1 mph - N/A Fog Fog
9:56 AM 63.0 °F 62.1 °F 97% 30.09 in 0.8 mi SSW 5.8 mph - N/A   Overcast
10:03 AM 62.6 °F 62.6 °F 100% 30.10 in 1.5 mi SW 5.8 mph - N/A   Mostly Cloudy
10:21 AM 64.4 °F 62.6 °F 94% 30.11 in 3.0 mi SW 6.9 mph - N/A   Overcast
10:56 AM 66.9 °F 63.0 °F 87% 30.09 in 6.0 mi SW 6.9 mph - N/A   Mostly Cloudy
11:56 AM 71.1 °F 63.0 °F 75% 30.08 in 10.0 mi WSW 10.4 mph - N/A   Mostly Cloudy
12:56 PM 72.0 °F 62.1 °F 71% 30.08 in 10.0 mi SW 11.5 mph - N/A   Overcast
1:56 PM 73.9 °F 60.1 °F 62% 30.06 in 10.0 mi South 10.4 mph - N/A   Mostly Cloudy
2:56 PM 75.9 °F 61.0 °F 60% 30.05 in 10.0 mi SW 10.4 mph - N/A   Mostly Cloudy
3:56 PM 75.9 °F 61.0 °F 60% 30.04 in 10.0 mi WSW 10.4 mph - N/A   Mostly Cloudy
4:56 PM 77.0 °F 61.0 °F 58% 30.03 in 10.0 mi SW 12.7 mph - N/A   Mostly Cloudy
5:56 PM 75.9 °F 59.0 °F 56% 30.03 in 10.0 mi SW 8.1 mph - N/A   Scattered Clouds
6:56 PM 73.0 °F 60.1 °F 64% 30.03 in 10.0 mi SW 8.1 mph - N/A   Scattered Clouds
7:56 PM 70.0 °F 60.1 °F 71% 30.04 in 10.0 mi SSW 5.8 mph - N/A   Clear
8:56 PM 69.1 °F 60.1 °F 73% 30.04 in 10.0 mi SSW 5.8 mph - N/A   Clear
9:56 PM 66.9 °F 61.0 °F 81% 30.05 in 10.0 mi SSW 6.9 mph - N/A   Clear
10:56 PM 64.9 °F 61.0 °F 87% 30.06 in 10.0 mi SW 5.8 mph - N/A   Clear
11:56 PM 64.9 °F 61.0 °F 87% 30.05 in 9.0 mi SSW 5.8 mph - N/A   Clear